This demonstration page uses our WeatherBlox Daily Observations layout. Learn more.

Left ArrowRight Arrow

39.01783, -85.05884

Hourly Observations for August 10, 2022

Temp ( °F °C ) Dew Point ( °F °C ) Humidity (%) Winds ( mph kmh ) Pressure ( in mb ) Visibility ( mi km ) Precip ( " mm )
12:12 am 00:12 Mostly Cloudy with Light Rain 74 23.3 73 22.8 97 97 Calm 30.05 1018 6 10 0.01 0.13
12:52 am 00:52 Cloudy 74 23.3 73 22.8 97 97 NNW 5 7 30.04 1017 8 13 0.01 0.13
1:39 am 01:39 Mostly Cloudy 73 22.8 73 22.8 100 100 W 6 9 30.05 1018 8 13 0.00 0.00
1:52 am 01:52 Mostly Cloudy 73 22.8 73 22.8 100 100 WSW 3 6 30.05 1018 8 13 0.00 0.00
2:52 am 02:52 Mostly Cloudy 73 22.8 72 22.2 96 96 W 7 11 30.05 1018 8 13 0.00 0.00
3:01 am 03:01 Partly Cloudy 72 22.2 72 22.2 100 100 W 6 9 30.06 1018 7 11 0.00 0.00
3:52 am 03:52 Partly Cloudy 71 21.7 71 21.7 100 100 SW 3 6 30.06 1018 8 13 0.00 0.00
4:40 am 04:40 Mostly Cloudy with Mist and Fog 72 22.2 72 22.2 100 100 Calm 30.06 1018 6 10 0.00 0.00
4:52 am 04:52 Mostly Cloudy with Mist and Fog 72 22.2 72 22.2 100 100 Calm 30.06 1018 5 8 0.00 0.00
5:52 am 05:52 Cloudy with Mist and Fog 72 22.2 72 22.2 100 100 Calm 30.06 1018 4 6 0.00 0.00
6:24 am 06:24 Cloudy with Mist and Fog 72 22.2 72 22.2 100 100 Calm 30.07 1018 1 1 0.00 0.00
6:52 am 06:52 Cloudy with Mist and Fog 72 22.2 72 22.2 100 100 WSW 3 6 30.08 1019 1 1 0.00 0.00
7:08 am 07:08 Cloudy with Mist and Fog 72 22.2 72 22.2 100 100 W 3 6 30.08 1019 2 2 0.00 0.00
7:36 am 07:36 Cloudy with Mist and Fog 72 22.2 72 22.2 100 100 WSW 5 7 30.09 1019 0 0 0.00 0.00
7:52 am 07:52 Cloudy with Mist and Fog 71 21.7 71 21.7 100 100 WSW 7 11 30.09 1019 0 0 0.00 0.00
8:52 am 08:52 Cloudy with Mist and Fog 72 22.2 72 22.2 100 100 W 5 7 30.11 1020 1 2 0.00 0.00
9:24 am 09:24 Cloudy with Mist and Fog 73 22.8 72 22.2 96 96 W 3 6 30.11 1020 2 3 0.00 0.00
9:44 am 09:44 Cloudy with Mist and Fog 74 23.3 72 22.2 94 94 WNW 6 9 30.11 1020 3 5 0.00 0.00
9:52 am 09:52 Cloudy with Mist and Fog 74 23.3 72 22.2 94 94 WSW 6 9 30.12 1020 3 5 0.00 0.00
10:52 am 10:52 Cloudy 77 25 73 22.8 88 88 WSW 6 9 30.12 1020 7 11 0.00 0.00
11:08 am 11:08 Cloudy 77 25 73 22.8 88 88 W 5 7 30.11 1020 7 11 0.00 0.00
11:52 am 11:52 Cloudy 78 25.6 73 22.8 85 85 W 6 9 30.12 1020 7 11 0.00 0.00
12:52 pm 12:52 Cloudy 79 26.1 72 22.2 79 79 NW 3 6 30.11 1020 10 16 0.00 0.00
1:52 pm 13:52 Cloudy 80 26.7 72 22.2 76 76 NW 9 15 30.09 1019 8 13 0.00 0.00
2:31 pm 14:31 Mostly Cloudy 81 27.2 72 22.2 74 74 NW 10 17 30.06 1018 10 16 0.00 0.00
2:52 pm 14:52 Mostly Cloudy 80 26.7 71 21.7 74 74 W 7 11 30.07 1018 10 16 0.00 0.00
3:52 pm 15:52 Mostly Cloudy 83 28.3 71 21.7 67 67 WNW 10 17 30.05 1018 10 16 0.00 0.00
4:52 pm 16:52 Cloudy 81 27.2 70 21.1 69 69 WNW 9 15 30.05 1018 10 16 0.00 0.00
5:52 pm 17:52 Mostly Cloudy 81 27.2 70 21.1 69 69 NNW 12 19 30.05 1018 10 16 0.00 0.00
6:52 pm 18:52 Partly Cloudy 80 26.7 69 20.6 69 69 NNW 9 15 30.05 1018 10 16 0.00 0.00
7:52 pm 19:52 Partly Cloudy 79 26.1 67 19.4 67 67 NW 9 15 30.05 1018 10 16 0.00 0.00
8:52 pm 20:52 Mostly Clear 76 24.4 67 19.4 74 74 NNW 5 7 30.06 1018 10 16 0.00 0.00
9:52 pm 21:52 Mostly Clear 75 23.9 68 20 79 79 NNW 5 7 30.08 1019 10 16 0.00 0.00
10:52 pm 22:52 Mostly Clear 73 22.8 68 20 84 84 NNW 6 9 30.08 1019 10 16 0.00 0.00
11:52 pm 23:52 Mostly Clear 72 22.2 68 20 87 87 NNW 7 11 30.08 1019 10 16 0.00 0.00

Powered by AerisWeather